Home   Weather   Norfolk   Past weeks

Flag for USA Past Weather in Norfolk, Virginia, USA — Yesterday and Last 2 Weeks

Now
44 °F

Overcast.


Feels Like: 43 °F
Forecast: 43 / 54 °F
Wind: 3 mph from Southeast

Location: Norfolk Naval Air Station

Current Time: Dec 4, 2016 at 7:43:16 pm

Latest Report: Dec 4, 2016 at 6:59 pm


Visibility: 10 mi

Pressure: 30.21 "Hg

Humidity: 79%

Dew Point: 38 °F

Location of NorfolkLocation

Past Weather in Norfolk — Graph

°F

Norfolk Temperature Yesterday

Maximum temperature yesterday: 53 °F (at 12:59 pm)
Minimum temperature yesterday: 42 °F (at 2:59 am)
Average temperature yesterday: 47 °F

High & Low Weather Summary for the Past Weeks

 TemperatureHumidityPressure
High76 °F (Nov 30, 12:59 pm)97% (Nov 24, 9:59 pm)30.39 "Hg (Nov 24, 9:59 pm)
Low32 °F (Nov 22, 6:59 am)19% (Nov 22, 2:59 pm)29.65 "Hg (Nov 30, 11:59 pm)
Average51 °F62%30.11 "Hg
* Reported Nov 19 5:59 pm — Dec 4 5:59 pm, Norfolk, Weather by CustomWeather, © 2016

Note: Actual official high and low records may vary slightly from our data, if they occured in-between our weather recording intervals... More about our weather records

Advertising

Norfolk Weather History for the Previous 24 Hours

Scroll right to see more
 ConditionsComfort  
Time TempWeatherWind HumidityBarometerVisibility
5:59 pm
Sun, Dec 4
44 °FPartly cloudy.No wind76%30.21 "Hg10 mi
4:59 pm44 °FPartly cloudy.No wind73%30.22 "Hg10 mi
3:59 pm46 °FMostly cloudy.No wind58%30.24 "Hg10 mi
2:59 pm47 °FMostly cloudy.No wind59%30.25 "Hg10 mi
1:59 pm46 °FMostly cloudy.3 mph63%30.26 "Hg10 mi
12:59 pm47 °FMostly cloudy.No wind64%30.26 "Hg10 mi
11:59 am47 °FMostly cloudy.6 mph66%30.27 "Hg10 mi
10:59 am47 °FMostly cloudy.6 mph66%30.29 "Hg10 mi
9:59 am48 °FMostly cloudy.7 mph63%30.32 "Hg10 mi
8:59 am46 °FMostly cloudy.9 mph68%30.30 "Hg10 mi
7:59 am43 °FMostly cloudy.8 mph74%30.30 "Hg9 mi
6:59 am42 °FPassing clouds.8 mph76%30.28 "Hg10 mi
5:59 am41 °FPassing clouds.10 mph76%30.27 "Hg10 mi
4:59 am42 °FPassing clouds.8 mph73%30.27 "Hg10 mi
3:59 am43 °FPassing clouds.7 mph68%30.27 "Hg10 mi
2:59 am42 °FOvercast.6 mph68%30.28 "Hg10 mi
1:59 am42 °FPartly cloudy.12 mph68%30.29 "Hg10 mi
12:59 am43 °FMostly cloudy.10 mph65%30.29 "Hg10 mi
11:59 pm
Sat, Dec 3
45 °FOvercast.12 mph60%30.29 "Hg10 mi
10:59 pm46 °FOvercast.9 mph58%30.28 "Hg10 mi
9:59 pm47 °FOvercast.13 mph56%30.28 "Hg10 mi
8:59 pm47 °FOvercast.12 mph59%30.25 "Hg10 mi
7:59 pm48 °FOvercast.8 mph52%30.24 "Hg10 mi
Weather by CustomWeather, © 2016

See weather overviewHow to use our weather pages